Regional Weather Roundup
Issued by NWS

Home | Current Version | Previous Version | Graphics & Text | Print | Product List | Glossary Off
Versions: 1 2 3 4 5 6 7 8 9 10 11 12 13 14 15 16 17 18 19 20 21 22 23 24 25 26 27 28 29 30 31 32 33 34 35 36 37 38 39 40 41 42 43 44 45 46 47 48 49 50

000
ASUS43 KTOP 020308
RWRKS

WEATHER ROUNDUP FOR KANSAS
NATIONAL WEATHER SERVICE GOODLAND KS
1000 PM CDT SAT AUG 01 2015

NOTE:  "FAIR" INDICATES FEW OR NO CLOUDS BELOW 12,000 FEET WITH NO
SIGNIFICANT WEATHER AND/OR OBSTRUCTIONS TO VISIBILITY.

KSZ001>006-013>018-027>032-041>047-020400-
NORTHWEST KANSAS

CITY           SKY/WX    TMP DP  RH WIND       PRES   REMARKS
GOODLAND       MOCLDY    72  58  61 S7        30.05R
HAYS           CLEAR     77  61  57 S8        29.98R
HILL CITY      CLEAR     78  60  53 S6        29.97R
RUSSELL        CLEAR     77  65  66 S8        29.96R
$$

KSZ061>065-074>080-084>089-020400-
SOUTHWEST KANSAS

CITY           SKY/WX    TMP DP  RH WIND       PRES   REMARKS
DODGE CITY     CLEAR     76  66  71 S9        30.02R
ELKHART          N/A     75  67  76 SE9         N/A
GARDEN CITY    PTCLDY    75  66  73 SE9       30.02R
GREAT BEND     CLEAR     77  66  69 S8        29.98R
LIBERAL        MOCLDY    79  64  61 S7        30.02R
PRATT          PTCLDY    79  66  65 S7        30.01R
$$

KSZ066>073-081>083-090>101-020400-
SOUTHEAST KANSAS

CITY           SKY/WX    TMP DP  RH WIND       PRES   REMARKS
CHANUTE        CLEAR     77  70  79 S7        29.97R
COFFEYVILLE    CLEAR     78  69  73 S6        29.97R
HUTCHINSON     CLEAR     78  70  76 S6        29.97R
MEDICINE LODGE   N/A     80  71  74 S5        29.98R
NEWTON         CLEAR     79  66  65 S7        30.00R
PARSONS        CLEAR     78  68  71 S3        29.98R
WICHITA INTL   PTCLDY    81  71  71 S8        29.96R
WICHITA JABRA  CLEAR     80  71  74 S7        29.97R
WICHITA MCCONL CLEAR     81  70  68 SE8       29.97R
WINFIELD       CLEAR     78  69  73 SE8       29.98R
$$

KSZ007>012-019>026-033>040-048>060-102>105-020400-
NORTHEAST KANSAS

CITY           SKY/WX    TMP DP  RH WIND       PRES   REMARKS
CONCORDIA      CLEAR     78  62  57 S12       29.94R
EMPORIA        PTCLDY    79  71  76 SE8       29.96R
LAWRENCE       CLEAR     77  68  73 SE9       29.96R
MANHATTAN      CLEAR     80  70  71 CALM      29.93R
MARYSVILLE     PTCLDY    79  70  73 S5        29.93R
OLATHE IND     CLEAR     74  65  73 SE7       29.98S
OLATHE EXE     CLEAR     73  62  68 SE7       29.97S
SALINA         CLEAR     80  68  66 S6        29.95R
TOPEKA BILLARD CLEAR     80  70  71 SE12      29.94R
TOPEKA FORBES  CLEAR     80  70  71 SE9       29.95R
$$



USA.gov is the U.S. government's official web portal to all federal, state and local government web resources and services.